GFSGBSN_850_dewp_009.txt.gz
Dewpoint
3 0 -0 1 -0 -7 -9 -8 -8 -8 -5 -3 -2 -0 -1 -2 -2 -2 -1 -1 -3 -4 -7 -9 -9 -6 -4 -3 -7 -5 -6 -5 -7 -7 -7 -7 -6 -6 -3 -4 -7 -9 -11 -14 -14 -11 -4
7 2 1 1 0 -10 -9 -8 -8 -7 -4 -1 -1 0 -2 -2 -2 -1 -1 -2 -4 -6 -8 -9 -7 -5 -3 1 -5 -5 -7 -6 -6 -5 -4 -6 -9 -9 -6 -7 -7 -10 -14 -13 -14 -13 -8
9 4 2 1 1 -7 -8 -8 -7 -5 -3 -1 -0 0 -0 -1 -2 -1 -1 -3 -6 -7 -8 -7 -5 -4 -3 -6 -6 -7 -6 -8 -7 -7 -7 -8 -9 -8 -6 -8 -13 -15 -12 -12 -11 -13 -11
9 7 2 2 1 -5 -7 -8 -7 -4 -1 -0 0 1 1 -0 -1 -1 -3 -6 -7 -8 -6 -5 -4 -3 -5 -8 -8 -6 -7 -9 -9 -7 -6 -6 -6 -7 -6 -11 -10 -11 -9 -9 -12 -9 -9
9 9 3 2 2 -2 -8 -8 -7 -2 -0 0 1 2 1 -1 -1 -2 -5 -7 -7 -6 -5 -3 -1 -1 -6 -8 -7 -9 -9 -9 -9 -8 -7 -7 -6 -5 -11 -8 -7 -7 -9 -8 -8 -4 -8
9 9 5 3 2 -1 -8 -7 -6 -1 -0 0 2 2 1 -1 -2 -4 -7 -6 -5 -4 -3 -1 1 2 -8 -6 -7 -10 -9 -10 -7 -6 -6 -5 -7 -6 -8 -9 -6 -7 -7 -8 -7 -4 0
8 8 8 3 2 -1 -7 -7 -4 -0 0 1 2 2 -0 -2 -3 -6 -6 -4 -1 0 -1 -6 -6 -5 -7 -4 -8 -10 -9 -10 -6 -7 -4 -6 -5 -5 -6 -9 -10 -8 -8 -7 -5 0 3
8 7 9 4 3 -1 -7 -7 -3 0 0 2 2 2 -2 -2 -5 -6 -5 -2 3 4 3 -6 -6 -6 -6 -4 -7 -9 -10 -7 -6 -4 -5 -4 -3 -6 -3 -3 -5 -4 -3 0 1 1 3
6 8 8 5 3 -1 -6 -6 -2 0 1 2 2 1 -2 -3 -5 -5 -4 3 3 6 4 -3 -5 -5 -5 -5 -6 -9 -9 -5 -6 -4 -4 -2 -4 -4 -2 -2 -0 -1 -1 -0 1 2 2
5 7 8 7 4 1 -6 -5 -0 0 1 2 2 -0 -2 -5 -4 -4 -1 -1 6 6 -1 -4 -6 -7 -6 -5 -5 -5 -5 -5 -4 -3 -1 -0 -2 -3 -2 -1 -1 1 -2 1 3 2 3
-0 5 8 8 4 2 -6 -5 1 1 1 2 1 -1 -3 -3 -1 -3 5 5 5 4 3 -5 -7 -6 -5 -6 -6 -3 -3 -4 -3 -2 -2 -0 -1 -2 -0 -1 -1 1 0 1 -1 -1 0
-1 1 7 8 5 3 -5 -4 1 1 2 2 2 -2 -2 -2 2 2 6 3 5 5 4 -5 -6 -6 -4 -4 -4 -3 -3 -3 -3 -1 -1 -1 -3 -2 -2 -1 -1 0 1 1 1 1 4
-1 -0 5 8 6 4 -4 -3 1 1 2 2 2 -3 -2 0 4 6 3 3 4 5 -2 -4 -4 -5 -3 -1 -1 -2 -1 0 0 2 2 -1 -1 -3 -3 -0 -1 0 2 5 5 6 4
-1 -1 3 7 6 4 -3 -2 1 1 1 2 2 -1 -0 3 7 2 1 -1 0 1 1 -5 -3 -3 -2 -1 -0 -1 -1 1 -1 -0 1 0 2 -3 -3 -1 0 0 2 6 6 7 4
-1 -2 1 7 6 4 -2 -0 1 1 1 1 2 2 2 6 5 2 -1 3 1 2 -2 -2 -2 -1 0 -1 -0 0 -0 0 -1 -1 2 2 1 -4 -3 -3 -1 -1 1 0 4 2 4
-1 -1 1 6 6 3 -1 1 2 1 1 1 2 4 3 5 1 0 2 1 3 3 -0 -3 -2 -1 2 0 1 1 1 1 0 1 -1 1 0 -2 -2 -2 -1 -1 -1 2 2 4 3
-2 -1 1 6 7 3 -1 2 2 1 1 1 2 4 6 1 0 -2 3 1 5 4 1 -2 -0 0 0 1 1 2 2 2 2 1 -1 -2 1 1 -1 0 1 0 1 1 1 2 1
-2 -1 1 6 7 1 0 2 2 1 2 1 4 1 3 0 -1 1 2 3 4 3 -0 1 -2 -1 0 2 3 3 3 2 2 2 1 -0 2 3 -0 -2 -1 -1 -0 -0 2 0 2
-2 1 3 6 6 0 1 2 2 1 2 1 4 7 6 -1 1 2 -1 2 3 0 -0 0 2 1 3 4 4 4 4 1 -1 0 2 0 2 4 1 -2 -2 -0 1 -1 0 2 4
2 1 2 6 5 1 1 1 2 1 1 3 2 7 8 1 -4 -1 -1 0 1 1 1 1 2 2 4 5 4 5 5 1 0 2 1 -1 1 2 3 -1 -0 1 2 -1 -0 3 2
1 1 3 6 2 1 1 1 1 1 1 4 2 5 6 5 1 -2 -4 -0 2 2 0 -0 2 2 4 5 5 5 4 1 2 2 2 -0 2 1 2 1 0 -2 0 0 -1 -1 2
1 2 5 4 1 0 1 0 1 2 1 5 1 3 2 3 -2 -0 -1 3 3 1 1 1 3 3 2 4 2 5 3 1 0 3 2 0 3 1 3 2 1 1 -1 -1 1 0 -1
0 2 5 1 -0 1 1 0 1 1 1 5 3 1 -3 2 4 2 3 2 2 2 3 2 2 3 3 4 3 2 0 1 2 3 2 1 2 0 -0 0 -2 1 -0 -1 -0 -1 0
2 5 2 -1 1 1 1 1 1 1 0 4 2 -1 -0 1 2 2 4 3 3 2 3 3 2 2 3 2 2 2 2 3 2 1 -0 1 -1 -1 2 -1 1 -3 -2 -2 -2 -2 -2
4 2 -1 -0 0 1 1 1 2 -0 1 3 2 -1 -0 1 1 1 4 5 4 4 5 5 4 3 2 1 3 3 3 2 3 1 -1 -1 0 1 4 1 -3 -6 -3 1 2 -1 0
1 -1 -1 -0 0 1 2 2 1 -0 2 4 3 3 3 1 2 -0 4 4 4 4 4 5 3 2 -0 -1 2 4 5 2 0 4 2 -1 -1 2 0 -0 -0 -4 -6 0 -1 3 -1
-1 -1 -1 -1 -1 1 2 3 2 -0 2 4 4 4 4 1 1 1 4 4 3 3 5 3 2 3 -1 0 3 3 2 0 1 3 4 4 2 2 -1 3 0 -4 -2 -1 1 1 -1
-2 -2 -2 -2 -1 1 3 3 2 -0 1 3 3 3 4 5 4 3 2 3 3 3 5 4 4 3 1 3 3 2 4 2 2 1 4 3 4 3 -0 2 2 -5 -0 3 1 -2 -4
-1 -1 -1 1 3 3 3 3 1 -1 1 2 2 2 4 5 5 5 3 2 2 1 3 4 3 3 1 3 0 2 4 3 1 4 1 3 2 3 1 2 -4 -4 -0 -1 -1 -2 -3

GFSGBSN_850_dewp_015.txt.gz
Dewpoint
8 9 9 9 8 8 4 -0 -2 -5 -7 -8 -8 -6 -4 -2 -1 -1 -2 -3 -2 -2 -4 -6 -9 -10 -8 5 0 -5 -10 -14 -11 -6 -6 -9 -9 -9 -10 -11 -11 -7 -6 -7 -4 -1 -2
8 7 7 9 8 8 7 2 -1 -5 -7 -8 -7 -5 -2 -1 -0 -0 -2 -3 -2 -4 -5 -8 -10 -8 -2 2 -4 -2 -6 -11 -4 -3 -7 -9 -9 -11 -12 -10 -9 -9 -8 -10 -6 -4 -3
-11 8 9 8 7 9 8 4 -0 -4 -8 -7 -7 -4 -1 -0 1 0 -2 -3 -3 -5 -7 -9 -9 -6 2 0 -3 1 -4 -4 -4 -6 -8 -7 -7 -8 -7 -7 -8 -10 -10 -9 -5 -5 -4
-29 -5 8 9 7 7 9 7 1 -2 -7 -7 -6 -3 -0 0 1 1 -2 -3 -4 -7 -8 -9 -6 -4 3 -1 -3 -1 -0 -2 -3 -4 -5 -3 -5 -6 -5 -8 -9 -10 -11 -5 -6 -5 -5
-32 -29 -2 8 8 7 7 8 3 -0 -6 -7 -6 -2 0 1 1 0 -3 -4 -6 -8 -8 -6 -3 3 1 -5 -5 -6 -3 -4 -2 -3 -4 -4 -3 -4 -5 -5 -8 -10 -8 -8 -6 -8 -6
-25 -25 -29 -0 8 8 9 9 4 1 -4 -6 -5 -1 0 2 1 -0 -3 -5 -7 -7 -6 -4 -1 5 -1 -5 -4 -8 -5 -4 -3 -2 -2 -3 -4 -3 -4 -6 -6 -7 -9 -10 -8 -8 -11
-23 -15 -20 -20 7 8 8 8 6 2 -3 -6 -5 -0 1 2 1 -1 -4 -6 -1 4 -1 0 -2 -2 -5 -5 -5 -8 -8 -6 -3 -3 -4 -4 -4 -4 -7 -8 -10 -10 -11 -12 -11 -10 -12
-15 -22 -11 -15 0 7 8 8 8 3 -1 -5 -4 1 2 2 1 -2 -4 2 2 6 3 -6 -2 -3 -3 -4 -5 -9 -8 -7 -5 -5 -5 -4 -2 -7 -10 -10 -11 -11 -10 -8 -7 -8 -4
2 -2 -3 -13 -5 5 7 8 8 4 1 -4 -3 1 2 2 0 -3 -5 -1 5 6 5 -1 -3 -3 -5 -3 -7 -9 -8 -8 -7 -6 -3 -2 -6 -7 -7 -10 -10 -9 -10 -5 -6 -5 -5
2 1 1 -1 -11 4 5 8 9 5 2 -3 -1 2 2 2 -1 1 -1 -6 -1 1 4 -3 -4 -4 -5 -6 -7 -7 -8 -7 -8 -6 -6 0 -5 -7 -8 -8 -8 -4 -5 -6 -6 -2 -2
0 1 -0 1 -2 -0 5 6 8 5 3 -3 -1 2 2 2 8 3 6 6 4 7 5 -6 -6 -5 -6 -7 -10 -6 -6 -7 -7 -6 -5 -2 -4 -5 -6 -4 -3 1 -3 -4 -4 -4 -2
-1 0 0 -0 -0 1 5 6 8 6 4 -2 -0 2 3 2 -1 5 7 10 9 8 3 -5 -7 -7 -5 -6 -8 -8 -7 -7 -5 -6 -6 0 -4 -5 -4 -3 -3 -3 -2 -2 -3 -3 1
-0 0 0 -1 -0 0 1 5 8 7 5 -2 0 2 2 1 3 6 5 9 7 4 -5 -6 -7 -7 -6 -7 -6 -6 -6 -6 -7 -3 -2 -4 -4 -3 -3 -2 -2 -4 -2 0 -1 1 1
0 1 -0 0 -2 0 1 3 7 8 5 -0 1 3 3 2 6 7 10 7 5 -3 -4 -8 -9 -7 -5 -7 -7 -6 -8 -7 -8 -4 -2 -3 1 -2 -3 -3 -3 -2 -3 -0 -0 0 -3
-1 0 0 -2 -1 -3 0 1 7 8 6 2 2 4 3 -0 1 7 8 9 3 -7 -6 -6 -8 -6 -5 -6 -6 -5 -4 -6 -7 -6 -3 -4 -2 -3 -3 -3 -4 -3 -0 -3 1 2 2
-3 -0 0 -1 -2 -3 0 0 5 7 6 2 4 4 3 -0 -1 8 7 5 -1 -4 -5 -7 -5 -6 -3 -4 -5 -5 -3 -4 -2 -2 -2 -4 -2 -4 -2 -2 -2 -1 -3 -0 -2 2 2
-2 -3 0 -1 -1 -3 -1 -0 3 6 6 1 6 5 0 -1 1 7 6 2 -3 -2 -3 -5 -6 -6 -5 -4 -5 -5 -4 -2 -2 -2 -3 -6 -4 0 -1 -1 -3 -0 -2 -3 -1 1 1
-3 -3 -0 -1 -0 -1 -1 -1 2 5 4 2 6 5 9 1 5 5 5 -0 -4 -0 1 -3 -3 -6 -5 -4 -3 -4 -6 -5 -1 -2 -3 -5 -2 3 0 -2 -2 -1 -2 -2 1 -2 -0
-3 -3 -0 -0 0 1 0 -0 2 5 5 5 6 5 10 4 8 9 1 -2 -3 -0 -1 -1 -3 -5 -6 -4 -3 -4 -4 2 2 0 -3 -0 -1 3 1 0 -2 -3 -3 -3 -4 1 -1
-4 -3 -0 -1 -1 1 1 0 1 5 4 5 4 7 8 8 5 3 2 -0 -0 0 -1 -2 -4 -2 -1 0 -1 1 1 2 2 0 -0 -1 -2 0 3 -0 -2 1 -3 -4 -3 1 -1
-2 0 -1 -2 -3 -1 1 2 3 5 3 6 2 3 4 8 6 2 0 -1 -2 0 -0 0 1 -1 -1 1 2 2 2 2 2 2 -0 1 2 -1 -1 -1 -2 -3 -4 -3 -3 -4 -1
-1 -1 -3 -4 -3 -2 0 1 3 5 2 6 2 1 2 4 2 2 1 -1 -2 -1 0 2 0 -2 -2 1 1 1 3 2 3 3 3 2 3 3 4 -0 -1 -1 -3 -6 -5 -5 -6
-3 -3 -3 -3 -3 -1 -0 1 4 5 3 5 5 2 2 5 4 2 2 -2 -2 -1 3 0 -1 0 1 3 3 3 2 1 1 4 4 4 5 4 1 1 2 5 2 -3 -5 -6 -5
-6 -4 -3 -3 -2 -1 -1 1 3 5 4 4 5 3 3 7 4 1 -2 -3 -3 -0 2 2 1 1 5 3 2 2 1 1 0 2 2 6 4 4 3 4 8 -6 -6 -6 -4 -6 -7
-7 -5 -3 -3 -2 -1 -1 1 4 4 3 4 6 4 3 11 2 -1 -3 -4 -3 2 3 3 5 4 3 3 4 5 6 7 4 -0 -1 -0 3 5 9 1 -4 -6 -10 -6 -4 -6 -9
-9 -5 -3 -2 -1 -1 1 2 5 3 3 5 8 4 1 5 3 -3 -3 -5 4 5 6 6 5 4 4 5 7 6 5 2 5 5 0 -0 2 3 3 9 10 -1 -4 -2 -3 -4 -6
-4 -3 -2 -0 1 0 1 3 3 3 3 5 8 1 -1 -3 -3 -2 -2 -2 -2 2 5 5 5 4 4 8 11 7 5 1 3 4 8 6 7 8 5 8 3 -4 -5 -2 -2 0 -3
-2 -1 -0 1 1 2 4 3 3 3 4 6 9 -1 -1 -2 3 3 -1 -1 -1 -0 8 5 5 5 5 9 11 7 9 5 3 1 4 4 6 8 6 9 8 -6 -2 1 2 -1 -1
0 1 1 1 3 4 2 2 3 3 3 6 7 -1 1 3 7 7 5 3 2 2 3 5 2 4 4 6 9 9 9 7 6 6 1 4 2 4 1 1 -2 -4 -4 -3 -1 -1 -1

GFSGBSN_850_dewp_021.txt.gz
Dewpoint
-33 -24 -1 6 7 6 9 8 9 8 8 4 -1 -6 -8 -8 -7 -6 -4 -2 -3 -4 -5 -5 -8 -11 -12 -0 -1 -0 -6 -8 -15 -10 -6 -5 -3 -6 -7 -9 -9 -9 -9 2 0 1 3
-34 -33 -33 -24 4 7 8 6 7 9 9 7 1 -3 -7 -7 -6 -4 -3 -2 -2 -4 -5 -7 -9 -11 -7 5 0 -1 -6 -7 -12 -9 -6 -4 -5 -10 -10 -8 -9 -10 -10 2 4 4 2
-32 -34 -33 -34 -32 -4 6 7 7 7 9 8 4 -1 -7 -7 -6 -4 -1 -2 -3 -5 -6 -8 -9 -8 -5 -9 -1 -1 -0 -8 -7 -6 -6 -7 -7 -5 -5 -4 -5 -8 -7 -7 2 4 4
-31 -32 -34 -34 -34 -33 -9 5 7 7 8 9 6 1 -5 -7 -5 -2 -1 -1 -3 -6 -8 -9 -8 -4 -5 -4 -4 -3 -1 -3 -4 -5 -4 -6 -4 -5 -5 -5 -4 -7 -7 -3 -4 1 2
-28 -30 -32 -33 -35 -35 -34 -7 3 7 6 8 8 3 -3 -6 -5 -1 -0 -1 -5 -8 -9 -9 -2 7 1 0 -3 -5 -2 -1 -2 -3 -5 -5 -4 -4 -4 -2 -2 -6 -5 -4 -3 -5 -1
-24 -26 -30 -31 -32 -34 -35 -31 -8 6 7 7 8 4 -0 -6 -4 -1 0 -2 -7 -9 -8 -7 -4 3 -6 -3 -6 -5 -5 -3 -3 -3 -3 -4 -4 -2 -2 -2 0 -4 -6 -5 -2 -4 -5
-11 -22 -25 -28 -30 -32 -34 -35 -19 -6 7 7 9 6 1 -5 -4 0 1 -3 5 6 1 -8 -5 -5 -3 -4 -5 -7 -6 -5 -3 -3 -0 -3 -2 -0 -2 -4 -3 -5 -6 -5 -7 -7 -5
2 -3 -15 -24 -27 -30 -31 -34 -35 -15 7 6 9 7 2 -5 -3 1 1 -3 4 4 5 4 5 -3 -2 -2 -4 -5 -6 -4 -2 -0 1 -2 -0 -2 -3 -4 -2 -3 -3 -4 -7 -9 -10
1 1 -3 -10 -16 -27 -30 -31 -34 -30 -1 7 8 8 3 -4 -1 1 1 -4 -2 3 5 3 2 -1 -4 -3 -4 -5 -8 -7 -2 0 -2 -0 1 -1 -1 -0 -2 -3 -1 -4 -6 -11 -12
1 1 1 0 -6 -7 -21 -26 -32 -34 -12 6 7 8 3 -3 0 6 4 -5 -9 -1 7 3 2 -4 -7 -5 -4 -7 -7 -7 -3 -1 -3 -1 -1 -1 0 -0 -4 -3 -3 -2 -3 -3 -3
-1 0 0 1 0 -1 2 -10 -21 -31 -5 5 7 8 4 -2 4 5 6 3 3 6 10 -2 -1 -5 -6 -4 -6 -8 -8 -7 -3 -1 -1 1 -1 0 1 -1 -5 -2 -4 -3 -2 -2 2
-0 -2 -2 -1 1 1 1 2 -3 -23 -1 5 7 8 5 -2 2 3 8 9 8 9 9 0 -3 -4 -4 -5 -5 -7 -8 -8 -3 -1 -2 -1 -4 -1 0 -2 -6 -2 -2 -0 0 0 4
0 -1 -2 -2 -0 0 0 1 2 -6 2 6 7 8 6 -2 1 5 3 9 9 9 -0 -1 -2 -4 -4 -3 -5 -7 -4 -5 -4 1 1 -1 -2 -1 -1 -0 -2 -1 -1 4 4 7 6
-3 -1 -1 -3 -1 -0 0 -0 1 -2 -1 6 6 8 6 -1 2 8 7 9 10 4 2 -5 -4 -3 -3 -5 -5 -5 -4 -3 -5 -5 1 2 4 2 0 -3 0 0 0 5 7 9 7
-4 -3 -0 -2 -5 -2 -1 -1 1 1 -1 5 7 7 6 -1 2 8 9 10 7 5 -3 -1 -5 -3 -3 -5 -5 -5 -5 -3 -6 -7 2 4 4 2 1 1 -2 -2 1 1 8 8 9
-2 -1 -1 -2 -3 -5 -2 -1 -0 1 -0 5 6 6 6 1 1 7 9 7 6 2 1 -3 -1 -4 -2 -4 -4 -4 -4 -6 -5 -6 2 6 5 4 3 2 -3 -3 -3 2 5 6 4
-2 -1 -1 -2 -4 -4 -1 -0 -1 1 0 4 5 6 5 3 2 7 7 7 5 3 0 1 -1 -4 -4 -3 -3 -3 -3 -5 -3 1 2 4 5 6 4 2 -1 -1 -1 -2 -0 4 6
-3 -3 -3 -3 -5 -6 -0 0 1 0 0 4 6 6 3 0 6 5 5 5 4 3 2 2 -3 -4 -4 -2 -2 -3 -2 3 -3 -1 3 3 5 5 3 -1 -3 -3 2 3 4 1 5
-4 -5 -5 -5 -5 -5 -0 0 1 -0 1 4 6 5 5 -1 4 5 3 5 5 4 3 2 -0 -2 -2 -2 2 -3 2 3 -0 -1 -0 1 0 3 1 0 1 -1 -2 -4 3 4 3
-5 -6 -5 -5 -5 -3 -1 -0 1 1 0 4 5 6 7 6 -1 2 2 4 6 3 3 1 0 0 -1 -1 0 1 5 2 2 1 -1 1 1 1 3 2 1 2 -0 -1 -1 4 3
-5 -6 -5 -6 -5 -1 -1 -1 1 1 1 4 5 3 5 8 6 1 2 3 5 5 2 0 1 1 0 -2 -2 -0 5 4 3 1 0 2 2 -0 2 2 1 -0 1 0 -1 0 2
-5 -5 -7 -7 -4 -3 -3 -1 1 0 1 3 5 3 5 5 5 5 3 4 4 3 2 1 2 -0 -1 -1 2 1 4 4 4 3 2 2 6 3 3 2 2 2 1 -0 -0 -1 -3
-5 -5 -6 -4 -4 -4 -4 -1 1 -0 1 3 4 3 4 6 6 5 2 4 4 2 1 -2 2 2 1 3 2 4 3 5 4 4 4 4 4 4 5 2 1 0 -1 0 -0 -1 -2
-4 -5 -5 -5 -5 -5 -3 -1 1 1 1 2 3 4 5 6 6 3 2 4 3 3 4 -0 -1 3 3 2 1 2 3 6 6 6 5 5 5 3 4 2 -1 -1 -4 -5 -1 -3 -4
-4 -5 -5 -5 -4 -3 -2 0 1 1 2 2 3 4 6 5 4 2 3 4 4 4 3 5 5 3 2 2 6 5 4 -1 3 1 5 6 4 5 3 4 1 -2 -2 -2 -4 -2 -3
-4 -4 -2 -3 -3 -3 -2 0 1 1 3 2 3 6 6 8 6 2 2 4 6 5 7 7 6 3 3 7 4 5 6 4 5 2 3 2 3 2 4 4 2 2 -3 -4 -4 1 -1
-6 -5 -4 -2 -2 -3 -1 0 -0 -0 1 2 2 3 4 9 5 3 2 4 4 6 8 7 7 5 6 4 6 4 4 3 6 6 4 4 3 3 3 3 4 2 -3 -4 -2 1 -1
-4 -2 -1 -1 -0 0 0 -1 -1 -1 -0 1 2 4 6 8 5 4 1 3 4 5 7 7 7 6 6 6 5 5 4 4 4 5 5 4 5 4 5 6 6 -1 -3 -2 3 -1 -1
-6 -2 -1 -1 -1 -2 -2 -2 -1 -0 -1 1 2 3 5 5 7 7 4 1 3 3 5 6 5 6 6 6 6 5 5 4 4 4 3 5 5 5 4 4 2 -4 -2 -1 -3 -2 -1

GFSGBSN_850_dewp_024.txt.gz
Dewpoint
-34 -34 -34 -29 -10 2 5 3 5 7 9 8 8 6 -2 -8 -8 -8 -7 -4 -2 -2 -4 -6 -8 -10 -13 -8 -5 -0 -7 -8 -16 -10 -7 -7 -3 -3 -5 -8 -9 -8 -3 1 4 5 4
-32 -33 -34 -34 -34 -26 -4 3 3 4 7 8 9 8 1 -7 -8 -8 -6 -3 -1 -2 -5 -6 -9 -11 -10 0 1 0 -1 -8 -12 -7 -6 -5 -5 -5 -8 -8 -8 -5 1 2 2 2 2
-31 -32 -31 -33 -33 -34 -33 -16 2 3 5 3 8 8 5 -4 -8 -8 -5 -2 -1 -3 -5 -7 -10 -10 -9 -11 -1 -2 -1 -8 -9 -9 -8 -5 -4 -4 -5 -4 -5 -6 1 3 5 3 2
-28 -30 -31 -31 -32 -33 -34 -34 -19 -6 4 4 4 8 7 -1 -7 -7 -5 -1 -1 -3 -6 -8 -9 -7 -11 -9 -1 -2 -2 -2 -5 -6 -6 -6 -4 -4 -6 -5 -4 -7 -5 2 3 4 2
-20 -24 -27 -29 -30 -31 -33 -34 -35 -22 -5 5 5 7 8 3 -5 -7 -5 -1 -2 -4 -7 -8 -8 1 -5 -2 -4 -6 -3 -2 -2 -3 -3 -4 -4 -4 -5 -3 -2 -4 -5 -4 2 3 2
-11 -14 -20 -25 -28 -29 -30 -32 -33 -35 -16 -2 6 5 8 5 -3 -7 -5 -1 -2 -5 -6 -7 -5 -2 -10 -3 -5 -6 -4 -4 -1 -2 -4 -3 -4 -2 -2 -2 -1 -3 -5 -5 -3 -4 1
2 -2 -9 -19 -22 -27 -29 -30 -33 -34 -26 -11 5 6 7 6 -2 -7 -4 -0 1 6 3 -9 -7 -10 -6 -4 -4 -5 -6 -4 -2 -3 -2 -2 -2 -1 -2 -2 -2 -3 -2 -5 -6 -6 -4
2 2 2 1 -11 -22 -26 -28 -30 -32 -30 -18 2 6 7 7 -1 -6 -1 0 4 2 4 2 2 5 -3 -1 -3 -4 -6 -4 -2 -1 0 -1 0 -2 -2 -2 -1 -1 -2 -2 -4 -7 -7
1 1 1 2 2 -5 -18 -24 -25 -29 -30 -15 1 5 6 8 0 -6 0 1 3 2 4 2 -1 -0 -5 -4 -3 -4 -5 -5 -1 -0 -1 -1 -2 -1 -1 -1 1 -0 -2 -1 -3 -10 -7
2 1 1 1 2 2 -3 -11 -22 -22 -29 -7 -0 5 6 8 -0 -3 6 6 -4 -6 6 4 3 -1 -3 -5 -4 -6 -6 -6 -3 -0 -1 -2 -2 -1 -0 0 -0 -0 -3 -2 -3 -4 -5
2 2 0 0 1 1 1 -4 -1 -14 -25 -16 2 7 4 8 -3 3 7 7 2 4 4 -1 2 -4 -8 -5 -5 -7 -7 -7 -3 -1 -2 -1 -1 -1 0 -0 -3 -2 -4 -3 -2 -1 -1
0 1 1 0 -0 0 1 1 1 1 -12 -17 4 7 7 7 1 -0 7 7 5 7 7 3 -1 -4 -4 -5 -5 -5 -9 -8 -3 -1 -2 -2 -3 -2 -1 -1 -3 -3 -1 1 2 2 4
-3 -2 -0 1 -0 -1 0 1 1 2 2 -9 5 6 7 7 4 -6 4 6 8 8 1 1 -2 -3 -3 -2 -3 -4 -6 -5 -1 0 0 -2 -2 -2 -1 -1 -2 -1 -1 2 2 5 4
-4 1 1 1 1 -0 -2 -0 1 1 2 -2 6 6 7 7 4 1 5 9 8 5 5 -1 -2 -3 -2 -3 -3 -4 -4 -4 -5 -3 1 1 2 2 1 -0 0 0 -0 3 3 7 5
-5 -0 1 0 1 0 -2 -2 -0 0 1 1 4 5 6 7 4 5 8 9 6 6 0 -1 -3 -1 -1 -3 -4 -4 -3 -3 -5 -5 -1 4 3 3 2 1 1 2 0 0 6 7 8
-4 -4 0 0 0 0 -1 -3 -1 -0 0 1 3 5 5 6 6 4 8 6 6 4 2 -2 -0 -2 -1 -2 -3 -4 -4 -4 -4 -5 -1 2 3 3 2 0 1 1 -2 2 4 7 7
-1 -4 -2 -1 -1 -1 -2 -2 -5 -1 -0 1 3 5 5 6 6 4 7 5 4 2 3 3 2 0 -3 -2 -3 -2 -4 -6 -5 1 1 3 1 4 3 3 2 1 -1 -1 1 3 4
-0 -1 -4 -4 -4 -2 -2 -1 -5 -3 -1 1 3 4 5 6 4 4 6 4 2 3 3 5 3 2 -2 -2 -2 -2 -2 -3 -4 1 2 3 4 6 5 0 0 0 -0 0 3 0 4
0 -1 -3 -3 -3 -0 -1 -3 -6 -2 -1 1 3 4 4 4 4 4 4 4 3 2 4 4 3 1 -3 -1 -1 -1 -0 2 0 0 2 2 2 3 2 -2 1 -1 -2 1 2 2 3
0 -1 -3 -3 -4 -1 -1 -4 -6 -1 -0 1 3 5 6 6 3 0 3 4 5 1 2 3 4 3 0 -1 -0 2 4 2 2 1 -1 -0 1 -0 2 -1 -1 1 0 -1 1 3 3
0 -1 -4 -3 -2 -1 -3 -5 -7 0 1 1 4 3 3 5 5 1 1 3 4 3 3 2 3 4 3 0 2 0 4 3 3 0 1 1 1 0 -0 2 1 -0 0 0 0 -0 1
-0 -1 -4 -3 -3 -3 -5 -6 -6 -0 1 2 2 4 3 4 3 3 1 2 2 2 2 2 4 3 2 -1 0 2 5 4 3 2 1 2 2 3 2 2 1 1 -0 0 -0 -1 -0
-1 -2 -4 -4 -4 -5 -7 -7 -7 -0 1 2 2 3 3 3 4 4 2 1 0 -1 2 0 1 2 2 0 1 -0 1 1 3 3 4 3 4 3 3 1 -0 3 -0 -1 -1 -1 -1
-1 -3 -5 -4 -5 -6 -6 -4 -2 -1 -0 2 2 4 4 5 5 5 2 0 0 1 1 1 -1 2 2 2 4 3 4 5 5 6 4 3 3 2 3 0 2 1 -3 -3 -2 -2 -2
-2 -5 -4 -4 -7 -8 -6 -4 -1 -1 0 1 3 3 5 4 5 5 3 1 -0 0 4 1 3 1 2 2 4 4 4 2 4 4 5 5 4 5 2 3 1 -2 -3 -4 -3 -1 -2
-6 -5 -4 -6 -9 -7 -6 -4 -3 -2 -0 1 2 3 4 5 5 4 4 1 2 3 3 6 4 4 3 5 3 4 3 2 4 2 2 4 2 3 4 3 1 -0 -2 -4 -4 2 -1
-4 -4 -5 -6 -5 -4 -6 -4 -3 -1 0 1 1 2 3 4 5 4 3 2 -0 5 4 7 6 6 5 4 4 3 5 3 5 4 3 2 2 2 1 1 1 -0 -1 -5 -3 -2 -1
-3 -3 -4 -4 -5 -5 -5 -3 -2 0 1 1 1 1 2 4 5 5 1 0 2 4 6 6 7 7 5 5 5 4 2 4 4 4 4 3 4 2 5 4 2 0 -3 -3 -2 -0 -1
-3 -3 -3 -4 -4 -4 -3 -3 0 1 0 1 2 2 3 3 4 6 6 4 1 3 5 6 4 6 7 6 5 4 4 2 2 5 3 2 2 3 3 3 0 -3 -2 -1 -2 -2 -0

GFSGBSN_850_dewp_030.txt.gz
Dewpoint
-26 -28 -22 -26 -26 -24 -14 -4 3 4 6 5 4 6 8 8 7 5 -6 -9 -8 -6 -4 -4 -6 -8 -11 -13 -11 -0 -4 -9 -13 -15 -7 -5 -4 -3 -4 -6 -7 -7 -8 -4 -3 5 5
-22 -25 -28 -26 -27 -28 -28 -27 -21 -3 2 4 5 4 7 6 6 7 -1 -8 -8 -6 -4 -3 -6 -8 -10 -11 0 -0 -4 -9 -13 -8 -7 -6 -4 -3 -3 -4 -7 -7 -4 2 4 5 5
-8 -14 -20 -25 -27 -25 -29 -29 -30 -27 -12 -1 3 4 4 5 3 8 5 -6 -8 -6 -3 -3 -6 -8 -9 -16 -6 1 -2 -5 -10 -7 -6 -6 -4 -4 -4 -5 -4 -2 2 3 4 3 2
1 -4 -9 -11 -22 -27 -26 -28 -28 -30 -29 -25 -2 3 2 4 4 6 7 -3 -7 -6 -3 -3 -6 -8 -11 -18 -8 -1 -3 -3 -8 -9 -8 -5 -4 -4 -4 -5 -5 -5 -2 -1 4 4 3
3 3 0 -6 -1 -6 -19 -25 -27 -27 -29 -29 -20 -1 -0 5 5 5 7 -0 -8 -7 -4 -3 -6 -7 -11 -12 -11 -5 -3 -2 -3 -4 -4 -4 -4 -4 -4 -4 -4 -5 -4 -4 3 4 3
2 3 3 3 1 -2 0 -6 -23 -26 -26 -28 -30 -17 2 5 6 3 7 1 -8 -4 -2 -3 -1 -5 -15 -6 -2 -2 -2 -3 -2 -2 -3 -3 -3 -3 -3 -3 -2 -2 -2 -3 -2 2 3
0 0 2 3 2 3 2 1 2 -5 -23 -24 -29 -29 -5 6 7 4 7 -3 -2 3 4 1 -9 -10 -15 -7 -3 -3 -3 -4 -2 -2 -2 -2 -2 -1 -3 -3 -3 -2 -1 -1 -3 -5 4
-3 -0 0 2 3 2 2 3 2 2 -1 -16 -22 -28 -3 5 8 6 7 -4 1 2 4 -2 -1 0 -0 0 1 -3 -4 -3 -1 -1 -1 -1 0 -2 -3 -2 -1 -1 -1 -1 -3 -6 1
-1 -3 -3 -0 2 3 2 2 3 2 2 1 -14 -25 -2 6 7 5 7 -2 1 6 4 -0 -2 -1 -3 -2 -2 -3 -4 -4 -2 -1 0 -0 -3 -2 -1 -2 -2 -1 -1 -0 -1 -6 -4
-1 -0 -2 -4 -1 0 3 2 2 2 2 2 -3 -18 2 6 6 4 4 6 6 4 2 0 3 -0 -1 -3 -2 -5 -4 -4 -2 -2 -0 -0 -3 -2 -1 -1 -1 -0 -2 -1 -2 -5 -3
-2 -1 -1 -2 -4 -2 0 2 1 2 2 2 1 -12 3 6 6 2 5 4 1 3 -0 -5 3 -0 -1 -3 -4 -4 -4 -4 -2 -1 -2 -1 -1 -1 -1 -1 -2 -1 -2 -1 -2 -1 -1
-1 -1 -2 -1 -3 -4 -1 1 1 1 1 2 2 -2 3 5 6 2 6 5 5 5 -1 -5 1 1 -2 -4 -4 -4 -4 -5 -5 -2 -2 -2 -3 -2 -2 -2 -2 -3 -2 -2 0 1 3
-0 -0 -0 -1 -1 -3 -5 -1 2 1 1 1 1 2 3 5 6 4 5 4 9 6 -4 -3 3 -2 -3 -3 -3 -5 -4 -2 -2 -0 0 -2 -2 -2 -1 -1 -2 -2 -2 0 -0 4 4
-0 -0 0 0 -0 -2 -4 -4 -1 2 0 1 1 2 1 4 5 6 6 7 8 4 1 1 -1 -2 -2 -4 -4 -3 -4 -2 -4 -3 -0 0 -0 0 -1 -2 -1 -1 -1 2 -1 4 1
-0 0 0 1 0 -0 -3 -5 -3 2 0 0 1 2 1 4 5 6 6 7 5 3 2 -0 -2 -2 -2 -3 -3 -3 -3 -3 -3 -3 -2 1 0 1 1 0 -1 0 1 -1 5 5 6
-0 -0 1 0 1 1 -1 -4 -5 -0 1 -1 0 1 1 3 5 6 6 5 4 1 3 3 -1 -1 0 -1 -3 -2 -2 -4 -4 -3 -3 -0 -1 1 1 1 0 -1 0 3 3 5 5
1 1 1 1 1 1 1 -2 -5 -1 1 -1 1 1 0 2 5 5 5 4 3 3 2 4 5 3 -1 -1 -2 -1 -2 -4 -4 -5 -3 -0 -3 -2 2 1 -1 1 1 1 1 2 3
0 1 1 1 1 1 1 -1 -5 -2 1 -1 1 1 -0 2 5 4 4 2 1 3 2 3 4 5 3 -1 -1 -2 -2 -3 -5 -1 -1 -0 -1 0 -0 -1 -1 -1 0 1 3 1 3
-1 -1 1 1 1 1 1 -1 -3 -1 1 -0 1 1 1 1 4 4 2 3 2 2 3 4 4 4 2 -1 -2 -1 -2 -4 -3 -2 0 1 0 2 0 -1 -1 1 0 0 1 1 3
-4 -4 -2 1 1 1 1 -1 -2 -1 0 -0 1 2 3 3 1 1 3 3 2 2 2 2 3 4 3 3 -0 -2 -2 2 -1 -2 -2 -2 1 -0 1 -1 -1 1 0 1 1 3 2
-4 -4 -6 -2 1 1 1 -1 -2 0 0 0 0 1 1 4 3 2 1 2 3 2 2 2 3 4 3 4 1 2 3 3 2 2 0 -1 -0 0 -1 -2 -1 0 0 1 1 0 2
-2 -3 -4 -4 1 1 0 -1 0 0 0 0 0 1 0 2 1 2 3 2 2 2 2 3 3 3 4 5 2 0 3 3 2 2 1 0 1 -0 1 1 1 1 0 0 0 -0 -0
-0 -2 -3 -4 0 1 0 -2 1 0 -0 0 0 1 2 1 2 2 2 2 1 2 1 1 1 2 3 2 0 -0 -0 1 2 2 3 1 2 2 2 2 0 3 1 0 -0 -1 -1
-0 -1 -2 -2 1 1 0 -1 -0 -1 -1 -1 -2 0 2 3 3 1 0 1 1 1 2 2 2 1 -1 -1 2 3 3 4 4 4 2 1 1 2 2 1 3 -0 -2 -2 -1 -2 -3
-0 -0 0 -0 1 0 -0 -0 -1 -1 -2 -4 -2 -0 2 3 1 2 1 -0 1 0 2 2 0 -0 0 1 4 5 3 3 3 3 4 1 2 3 3 3 0 -0 -2 -1 -1 -2 -2
-0 0 -1 -0 1 0 -0 -0 -0 -1 -1 -2 -2 -2 2 3 3 1 1 -0 1 2 1 2 0 -0 -0 4 3 5 7 5 4 4 1 1 1 3 1 3 3 1 -2 -4 -4 -0 -2
0 -1 1 1 0 -0 -0 -0 -1 -2 -2 -2 -2 0 1 1 2 2 2 2 -0 0 1 1 1 3 1 1 3 4 5 3 5 5 4 3 2 3 1 1 2 -1 -4 -5 -1 -0 -2
-1 1 0 0 -0 -0 -0 -1 -2 -2 -1 -1 -1 0 0 2 1 3 3 1 1 0 1 2 4 5 3 4 4 4 3 4 3 3 4 5 5 3 1 1 4 -3 -2 -2 -2 -5 -3
1 1 0 -0 -0 -1 -1 -2 -2 -1 -1 -1 -2 -1 0 1 2 3 4 4 2 0 0 1 0 5 4 5 3 3 3 1 3 4 2 3 3 4 3 3 -0 -2 -2 -5 -5 -4 -2

GFSGBSN_850_dewp_036.txt.gz
Dewpoint
4 2 -0 -1 -2 -8 -17 -23 -24 -26 -23 -17 -7 -3 1 3 2 1 7 5 5 7 -2 -8 -8 -4 -7 -4 -10 -4 -3 -10 -13 -8 -4 -4 -4 -5 -6 -6 -5 -5 -6 -5 -3 -2 3
3 3 4 3 2 -0 -4 -14 -20 -24 -27 -27 -26 -24 -8 1 4 3 1 2 2 7 3 -6 -8 -5 -2 -5 -15 -0 -7 -12 -13 -6 -4 -4 -3 -3 -3 -4 -4 -5 -3 1 0 3 5
2 2 3 3 3 3 2 -0 -7 -20 -24 -26 -27 -27 -25 -11 -1 3 3 1 -1 5 6 -3 -8 -5 -3 -4 -15 0 -8 -9 -13 -5 -5 -5 -3 -3 -3 -4 -4 -4 1 -1 1 4 4
1 1 1 2 2 3 3 3 0 -2 -16 -25 -24 -26 -27 -27 -17 -3 -1 -2 1 4 6 1 -7 -3 -1 -10 -14 -2 -3 -7 -9 -7 -6 -5 -5 -3 -3 -3 -5 -4 -2 1 1 2 3
-1 0 0 1 1 2 3 3 3 1 -0 -12 -21 -22 -24 -27 -24 -10 -4 -6 1 1 5 -1 -6 -2 -3 -10 -13 -10 0 -1 -6 -8 -7 -5 -3 -3 -3 -5 -5 -4 -3 -2 2 0 2
-0 1 1 -1 -0 1 1 2 3 3 2 -1 -12 -14 -19 -25 -27 -18 -12 -4 -0 1 0 -1 0 0 -5 -9 -6 -12 -2 -1 -2 -4 -3 -2 -2 -3 -6 -6 -3 -3 -3 -3 1 2 2
0 -1 -1 -0 -0 -2 0 1 2 3 3 3 0 -8 -9 -19 -25 -18 -13 2 5 3 2 1 -0 -1 -10 -5 -3 -1 -4 -3 -1 -1 -1 -2 -2 -3 -7 -7 -4 -4 -4 -4 -4 -3 -0
-1 -1 -2 -3 -1 0 -0 -2 0 2 3 3 3 1 -4 -9 -19 -13 -9 6 5 3 2 1 -5 -0 -3 -4 -1 -0 -0 -1 -1 -1 -2 -1 -2 -6 -6 -5 -2 -2 -4 -3 -4 -4 -2
-1 -0 -0 -1 -2 -3 0 -0 -2 -0 3 2 2 3 2 -4 -10 -4 -3 3 3 5 5 0 1 -1 -1 -1 -2 -3 -0 -1 -1 -1 -1 -1 -3 -3 -3 -2 -1 -2 -3 -3 -2 -3 -3
-2 -2 -0 1 0 -1 -3 -0 -0 -2 0 3 2 2 2 -1 -4 3 3 -4 1 6 5 -5 -1 -0 -0 -2 -1 -4 -1 -2 -2 -1 -2 -1 -3 -2 -2 -2 -2 -1 -3 -2 -2 -2 -3
-1 -2 -3 -2 -2 0 -0 -2 -2 -2 -4 0 3 2 2 1 5 5 4 3 3 6 -1 -6 1 1 1 -4 -5 -3 -3 -3 -3 -2 -1 -2 -1 -1 -1 -2 -3 -2 -2 -1 -2 -2 -1
0 -1 -1 -2 -1 -1 -2 -1 -2 -2 -1 -4 1 2 1 2 3 4 5 5 6 6 -1 -6 1 2 2 -1 -5 -4 -3 -3 -4 -3 -2 -3 -3 -3 -4 -3 -3 -2 -1 -1 -0 -0 1
-0 -0 -0 -0 -0 -0 -0 -1 0 -2 -2 -2 -2 2 2 2 2 5 5 7 6 4 -5 -7 1 2 -1 -2 -4 -4 -3 -2 -3 -0 0 -2 -2 -4 -3 -2 -1 -1 -1 1 1 1 1
0 0 -0 -0 0 0 -0 0 -2 -0 -2 -2 -5 -1 1 1 2 4 5 7 2 -8 -5 -3 -1 0 0 -4 -4 -3 -3 -2 -4 -4 -3 -1 -0 -3 -3 -2 -2 -2 -2 1 2 1 -2
1 1 0 0 1 0 0 0 -0 -1 -1 -2 -5 -2 2 0 -1 4 5 6 -5 -8 -5 -7 -4 1 1 -3 -5 -3 -3 -3 -4 -4 -2 -1 -3 -3 -2 -3 -3 -0 0 -2 3 5 2
1 1 2 0 0 1 0 1 0 0 -0 -1 -3 -1 2 1 -1 2 4 3 -4 -9 -4 -3 -3 -4 1 -1 -4 -3 -2 -4 -4 -5 -6 -3 -2 -1 1 0 0 -0 -2 2 2 4 3
1 1 2 1 1 1 1 0 1 1 1 -1 -2 0 1 1 0 2 4 2 -3 -7 -2 -1 -1 -4 -2 0 -4 -3 -2 -3 -4 -3 -5 -5 -3 2 2 2 -1 1 1 1 0 2 2
2 2 1 -1 1 1 1 1 1 1 1 0 -1 1 1 1 2 2 3 0 -3 -5 -1 0 1 0 -3 -2 -1 -3 -3 -3 -4 -5 -2 -4 -2 0 -1 -1 -1 -3 -3 -0 2 1 2
1 0 -0 -2 2 2 1 1 1 1 1 1 -0 1 1 1 2 2 -1 -0 -2 -2 -3 1 2 2 3 2 1 -2 -3 -3 -3 -3 -3 -2 -1 1 -1 -1 -1 -2 -2 -2 -0 2 2
-2 -4 -4 -5 -2 1 2 2 1 1 1 1 -1 1 2 1 -1 -1 -0 -1 0 -2 -2 -2 -0 1 4 4 2 -0 -2 -1 -2 -4 -3 -2 -3 -1 1 -3 -5 0 -2 -2 -1 3 1
-2 -1 -2 -2 -4 -1 1 1 2 1 1 0 0 1 2 2 1 -2 -2 -4 -1 0 -3 -1 2 2 3 4 3 3 -1 2 0 -0 -3 -0 -1 -2 -5 -6 -6 -5 -5 -3 -1 -1 1
-3 -3 -2 -1 -2 -4 1 1 2 1 1 0 0 1 1 -2 -1 -3 -3 -2 -1 -1 -3 -1 2 2 1 3 1 3 3 3 1 2 0 -1 -1 -2 -1 -4 -3 -3 -4 -5 -2 -2 -2
-0 -0 -1 -1 -1 -2 -5 1 1 1 1 0 -1 -1 -1 -1 0 -1 -2 -2 -3 -3 -2 -5 -3 0 2 3 2 2 3 2 1 3 2 2 2 2 1 1 1 3 0 -3 -2 -2 -0
-1 -1 0 -1 -0 -1 -5 -1 2 1 0 -0 -1 -2 -1 -0 1 -1 -3 -3 -2 -2 -2 -3 -2 -1 0 1 0 0 3 2 2 1 1 4 3 3 3 5 9 -2 -2 -2 -2 -2 -2
-0 0 -0 -0 -0 -1 -4 -1 2 1 0 -0 -1 -0 -2 2 -2 -2 -3 -4 -3 -3 -1 -2 -3 -1 0 2 2 2 4 5 5 4 4 3 3 5 9 5 0 -1 -1 -0 0 -1 -3
0 0 0 0 -0 -0 -3 -3 1 1 0 -0 -1 -1 -1 -0 -2 -4 0 -2 -1 -0 -1 -2 -2 2 2 4 3 3 -2 -0 4 5 2 3 3 6 5 5 7 -1 -3 -3 -2 1 -5
-0 -0 -0 -0 -0 -0 -4 0 1 0 0 0 -0 -2 -1 -2 -5 -5 -1 2 -1 -2 -0 -1 1 3 2 5 8 5 2 -1 -0 7 7 5 5 8 6 7 2 -1 -2 -3 2 2 -2
-0 0 0 -0 -1 -3 -3 -2 1 0 -0 0 -1 -2 -2 -1 0 -0 1 1 1 -3 1 -1 2 3 4 5 5 5 7 5 2 0 6 5 7 8 6 9 8 -1 -2 0 0 1 -1
-1 -1 -1 -1 -3 -3 -3 -1 1 -0 -0 -0 -1 -2 -1 -1 1 1 -0 1 3 -1 -3 -0 -1 -0 0 2 4 4 8 7 5 5 3 6 4 5 4 3 -0 -1 -2 -2 -0 -2 -1